Wind_Speed
27 28 27 27 27 27 27 27 28 27 28 27 28 29 29 29 30 30 30 31 31 31 31 31 32 31 31 31 31 31 32 33 32 33 33 34 35 35 36 37 37 37 37 37
28 28 27 28 28 28 27 28 28 28 27 28 28 29 30 30 30 30 30 31 31 31 31 31 31 31 30 30 31 31 30 30 31 31 33 33 34 35 36 36 36 36 35 35
27 27 28 28 27 28 28 27 27 27 27 28 28 29 29 29 29 29 30 30 30 30 30 30 30 30 29 30 30 30 30 30 30 31 32 33 34 34 35 35 35 34 35 35
27 27 28 28 27 27 28 27 27 27 27 28 28 28 28 29 29 30 30 31 31 30 30 30 30 29 29 29 29 30 30 30 31 31 31 32 33 34 35 34 34 34 35 34
27 28 27 27 27 27 27 26 26 26 26 27 27 27 28 28 29 30 30 30 30 29 29 29 28 28 28 28 29 29 30 31 31 32 32 33 33 34 34 34 34 34 34 33
27 28 26 26 25 26 26 26 26 25 26 26 26 26 26 27 27 28 29 29 29 28 28 27 27 27 27 28 28 29 30 31 31 32 32 33 32 32 32 32 33 33 32 31
25 26 26 25 24 24 24 24 24 24 24 24 25 25 25 25 26 26 26 26 26 25 25 24 24 25 26 26 27 28 29 30 31 31 32 32 31 31 31 31 31 30 29 28
25 25 25 24 24 23 23 23 24 24 24 24 24 24 24 24 25 24 24 24 24 24 24 23 23 23 24 25 26 27 27 28 29 29 30 30 29 29 29 29 28 27 26 25
24 24 24 23 22 22 22 23 23 23 23 23 23 23 22 23 24 23 22 22 22 22 23 22 22 23 24 24 25 25 25 26 26 27 27 27 27 27 26 26 26 25 25 24
23 22 21 21 21 21 22 22 22 22 22 22 22 22 22 22 22 22 21 21 21 21 21 22 22 22 23 23 23 23 24 25 25 25 25 25 25 25 25 25 24 23 23 23
23 21 21 20 21 21 21 21 21 21 21 22 22 22 22 22 21 21 21 21 21 21 21 21 22 22 21 21 22 22 23 23 24 24 24 24 23 24 23 23 23 22 21 21
22 21 20 20 20 20 20 20 21 21 21 21 21 21 21 21 21 21 20 21 21 21 22 22 22 21 21 21 21 22 22 22 23 23 22 22 22 22 22 22 22 22 21 21
22 21 20 20 20 20 20 21 21 21 21 21 21 21 21 21 21 21 21 21 21 21 21 21 21 20 21 21 21 22 22 22 22 22 21 21 21 21 21 21 21 21 21 21
21 21 20 20 20 19 20 21 21 21 21 21 21 21 21 21 21 21 21 21 20 21 21 21 20 20 20 21 21 21 21 21 21 20 20 20 20 20 20 20 20 20 20 20
21 20 20 20 20 19 19 20 20 20 20 20 20 20 20 20 20 20 21 20 21 21 21 20 20 21 21 21 21 21 21 21 20 20 19 19 19 19 19 18 18 19 19 19
19 20 20 19 19 19 19 19 19 19 19 19 19 19 20 20 20 20 20 20 21 21 20 20 20 21 21 21 21 22 22 21 21 20 20 19 19 18 18 18 17 17 17 17
18 18 18 18 18 18 18 18 18 18 18 19 19 19 19 20 20 20 20 20 20 19 19 19 20 20 20 21 21 21 21 21 21 20 20 19 18 18 17 17 16 15 15 15
17 17 17 17 17 17 18 18 18 18 18 18 18 18 19 20 20 20 20 20 20 19 19 19 20 20 21 21 21 21 20 20 20 20 19 19 18 17 16 16 15 14 14 13
17 17 17 17 16 17 18 18 18 17 17 18 19 19 19 19 19 19 19 19 19 18 19 20 20 20 20 20 20 20 19 19 19 18 18 17 16 16 15 14 14 13 12 12
17 17 18 17 17 18 18 18 18 18 18 18 19 19 19 18 18 18 18 18 18 18 18 19 19 19 19 19 20 20 19 19 18 17 16 16 15 14 14 13 13 12 12 12
18 18 18 18 18 18 18 18 18 18 18 18 19 19 19 18 18 18 18 18 17 17 18 18 18 18 18 19 19 19 18 18 17 16 15 14 13 12 12 12 12 12 12 12
18 18 18 18 18 18 18 18 18 18 18 18 18 18 18 18 18 18 17 17 17 17 18 18 18 18 18 18 18 17 17 16 16 15 14 13 12 11 11 10 10 10 11 11
17 18 17 18 18 18 18 18 17 18 18 18 18 18 18 18 18 18 17 18 17 17 18 17 17 18 18 18 18 17 16 16 15 14 14 13 12 11 11 10 10 10 10 10
16 17 17 18 18 18 18 18 18 18 18 18 18 18 18 18 18 18 18 18 18 17 17 17 17 18 18 18 17 17 16 15 15 14 13 12 11 11 10 10 10 10 10 10
16 16 17 18 18 19 19 19 19 19 19 18 18 18 18 18 19 19 18 18 18 18 17 17 17 18 17 17 16 16 15 14 14 13 12 11 11 10 10 9 9 9 9 9
16 16 17 18 19 20 19 19 19 19 19 19 19 19 19 19 19 19 19 19 18 18 17 17 17 17 17 16 16 15 14 14 13 12 12 11 11 10 10 10 9 9 9 9
17 17 18 19 20 20 20 20 20 20 20 20 20 19 20 20 19 19 19 18 18 17 17 18 18 17 16 16 15 14 14 13 13 12 12 11 11 10 10 9 9 9 9 9
Wind_Direction
280 282 284 283 281 281 281 283 283 285 285 286 285 286 287 288 287 287 287 287 286 284 284 284 285 283 281 279 279 279 279 278 276 276 277 276 276 276 277 277 277 277 277 276
278 280 281 281 280 279 280 282 284 285 285 286 286 285 285 286 287 288 288 288 287 286 284 284 284 283 281 279 279 279 279 278 277 277 277 277 277 278 278 277 277 277 277 276
279 279 279 280 282 282 281 283 284 286 287 288 287 287 286 286 287 288 288 289 288 287 285 285 284 282 280 280 279 279 279 280 278 277 279 279 279 279 278 278 278 277 277 276
280 280 280 283 282 282 282 283 285 287 287 288 289 288 288 287 287 288 289 289 289 288 286 285 283 282 282 281 280 281 281 281 280 280 280 280 280 279 279 279 278 278 278 277
280 281 283 285 285 285 284 284 286 288 288 289 289 289 290 290 290 290 290 290 290 288 286 285 284 282 283 284 283 281 281 282 281 281 281 282 282 281 279 278 278 278 277 276
280 283 286 288 286 286 285 286 287 289 289 290 289 291 293 293 293 292 291 291 290 288 286 286 285 284 284 285 284 283 283 284 284 283 283 283 283 283 282 281 280 279 276 274
280 283 287 288 287 286 287 289 288 289 289 291 291 293 294 295 296 296 294 293 292 290 288 288 288 287 287 287 287 287 286 286 286 285 285 284 284 284 284 283 282 279 276 273
281 283 286 289 288 288 288 287 289 290 290 291 291 291 293 296 298 298 297 295 294 291 289 290 289 289 290 291 291 291 290 289 288 287 286 286 285 284 284 283 282 279 275 271
280 283 286 286 287 288 288 289 291 292 291 291 292 292 293 295 297 297 297 295 294 291 289 290 291 291 294 294 293 292 292 291 291 289 288 286 286 284 283 283 281 277 273 269
277 280 283 283 284 287 288 291 293 294 293 292 292 292 294 296 298 298 297 297 295 292 290 291 293 294 295 295 295 294 295 295 294 293 291 288 286 285 285 284 282 278 273 270
275 278 278 280 283 285 289 292 294 295 295 294 292 293 295 298 298 298 298 297 296 293 292 294 295 295 296 296 297 298 298 298 297 296 293 289 287 286 285 283 281 277 274 270
275 277 277 278 282 285 288 292 295 296 295 294 295 295 296 297 298 298 298 298 297 296 295 295 295 294 295 296 298 300 300 299 299 297 294 291 289 287 285 283 280 277 274 271
272 272 273 277 281 284 287 290 294 296 295 295 295 295 297 298 298 298 299 299 297 297 296 296 296 296 298 298 299 301 301 301 302 299 296 294 292 290 288 284 279 276 274 272
272 271 273 277 281 283 286 290 293 295 295 295 294 294 297 298 297 298 299 301 300 298 298 295 295 297 298 300 301 303 304 303 303 302 300 297 295 294 291 286 281 277 274 271
270 273 275 278 280 283 288 291 292 294 295 295 294 294 297 299 299 299 299 300 300 299 298 297 296 297 298 300 302 304 305 304 303 302 301 300 298 295 293 289 283 278 274 271
273 275 278 279 281 283 288 291 292 293 294 296 296 295 296 299 300 300 300 299 300 300 299 299 300 299 299 301 301 302 304 303 302 302 302 301 300 298 296 291 285 280 275 271
277 277 278 279 282 284 287 289 290 291 293 296 297 296 297 300 301 301 300 300 300 300 301 302 303 302 302 303 303 303 303 302 302 301 300 299 298 298 297 294 286 280 275 271
279 280 281 281 284 285 286 286 287 288 290 294 296 299 301 302 302 302 303 301 301 300 300 302 303 303 303 304 305 306 305 303 302 300 298 297 296 295 295 292 287 281 276 271
282 282 283 283 284 286 286 284 285 287 288 292 296 300 302 303 304 304 304 303 301 300 301 303 303 304 304 304 306 308 307 306 305 302 300 298 296 294 294 291 285 279 274 270
283 284 284 283 283 286 288 286 285 285 287 290 294 298 301 303 304 304 303 302 300 300 301 303 304 305 305 306 308 308 307 307 307 305 302 300 296 294 293 290 284 277 272 269
283 284 285 286 286 286 286 285 285 286 288 291 294 296 298 301 303 303 304 302 300 299 302 304 306 307 307 308 309 308 308 308 308 307 304 302 298 295 293 290 285 278 272 268
282 283 286 288 288 288 286 286 285 287 290 292 294 295 296 299 301 301 303 303 301 300 302 305 306 308 309 310 310 310 310 311 310 309 308 306 302 298 296 293 288 281 273 267
282 283 287 290 290 288 287 286 287 289 291 292 294 294 295 297 298 299 299 300 300 300 302 304 306 308 310 310 310 310 311 311 310 309 308 307 304 299 295 293 289 284 277 269
284 284 287 289 290 289 287 286 286 287 290 293 295 296 296 296 296 296 296 297 297 297 299 301 302 306 309 309 308 309 311 311 310 307 305 304 302 299 297 294 289 285 279 271
288 288 289 290 291 290 287 286 285 286 287 290 292 294 295 296 296 296 296 297 296 296 297 299 301 303 305 306 306 308 310 311 309 307 305 302 299 297 296 293 288 283 278 272
289 290 292 292 292 290 287 284 283 284 285 287 289 291 293 295 296 295 296 297 297 297 297 299 301 302 302 301 301 303 305 306 303 301 302 301 299 296 293 291 287 281 277 272
288 291 293 294 293 291 288 285 284 284 285 285 286 287 289 292 294 294 294 295 297 298 299 300 301 301 300 299 297 298 300 301 300 298 297 296 294 293 292 289 285 279 273 269
Height
5623 5621 5619 5618 5617 5615 5613 5612 5610 5609 5607 5606 5602 5600 5598 5596 5594 5592 5590 5588 5585 5583 5580 5578 5576 5573 5571 5569 5568 5566 5564 5563 5561 5560 5559 5557 5556 5554 5552 5550 5549 5547 5546 5544
5615 5613 5611 5610 5609 5607 5606 5604 5603 5601 5600 5598 5595 5592 5590 5588 5585 5583 5581 5579 5576 5574 5571 5569 5567 5565 5562 5561 5559 5557 5556 5554 5552 5551 5549 5548 5546 5544 5542 5540 5539 5537 5535 5533
5606 5605 5603 5602 5602 5600 5598 5597 5595 5593 5593 5590 5587 5584 5582 5579 5577 5575 5573 5570 5568 5565 5563 5561 5559 5556 5554 5552 5551 5549 5547 5545 5543 5542 5540 5538 5536 5534 5532 5530 5528 5526 5525 5523
5598 5597 5595 5598 5594 5592 5591 5589 5587 5585 5583 5581 5579 5576 5573 5571 5569 5566 5564 5562 5559 5557 5554 5552 5550 5548 5546 5544 5542 5541 5539 5537 5535 5533 5531 5529 5527 5524 5522 5520 5518 5516 5515 5513
5590 5588 5588 5588 5586 5584 5582 5582 5580 5577 5576 5573 5571 5568 5566 5563 5560 5558 5556 5553 5550 5548 5546 5544 5542 5540 5538 5536 5534 5532 5530 5528 5526 5524 5522 5520 5517 5515 5512 5510 5508 5506 5505 5503
5582 5581 5580 5581 5579 5576 5576 5574 5572 5570 5567 5565 5563 5561 5559 5555 5553 5550 5547 5544 5542 5540 5538 5536 5533 5531 5530 5528 5526 5524 5522 5519 5517 5515 5513 5511 5508 5505 5503 5501 5498 5496 5495 5493
5575 5573 5573 5573 5571 5569 5569 5568 5565 5562 5560 5558 5555 5553 5551 5548 5545 5542 5539 5537 5534 5532 5530 5528 5526 5524 5522 5520 5518 5515 5512 5510 5508 5506 5503 5501 5498 5496 5494 5491 5489 5487 5486 5485
5567 5566 5568 5565 5563 5563 5561 5559 5557 5554 5553 5551 5549 5546 5544 5541 5538 5535 5532 5530 5527 5525 5523 5521 5519 5517 5515 5513 5510 5507 5505 5502 5500 5497 5494 5492 5489 5487 5484 5482 5480 5478 5477 5477
5561 5562 5559 5557 5556 5555 5553 5552 5550 5548 5546 5544 5542 5540 5537 5535 5532 5529 5527 5524 5521 5519 5517 5515 5512 5510 5508 5505 5503 5500 5497 5494 5492 5489 5486 5483 5481 5478 5476 5474 5472 5471 5470 5470
5554 5553 5552 5550 5549 5548 5546 5545 5543 5541 5539 5538 5535 5533 5531 5528 5526 5523 5521 5518 5515 5513 5511 5509 5506 5504 5501 5499 5496 5493 5490 5487 5484 5481 5478 5476 5473 5471 5469 5467 5465 5464 5463 5463
5546 5546 5545 5544 5542 5541 5540 5538 5537 5535 5533 5531 5529 5527 5525 5522 5520 5517 5515 5512 5510 5507 5505 5503 5500 5497 5495 5492 5489 5487 5484 5480 5477 5474 5471 5468 5466 5464 5462 5460 5458 5457 5457 5456
5541 5540 5538 5538 5536 5535 5534 5533 5531 5529 5527 5525 5523 5521 5518 5516 5514 5511 5509 5507 5504 5502 5499 5497 5494 5491 5489 5486 5483 5481 5477 5474 5471 5468 5465 5462 5459 5458 5455 5454 5452 5451 5450 5450
5533 5532 5531 5531 5530 5529 5528 5526 5524 5523 5521 5519 5517 5515 5513 5510 5508 5506 5503 5501 5498 5496 5493 5491 5488 5486 5483 5480 5477 5474 5471 5468 5465 5462 5459 5456 5453 5451 5449 5448 5446 5445 5444 5444
5526 5526 5525 5525 5524 5523 5521 5520 5518 5516 5514 5512 5511 5509 5507 5505 5502 5500 5497 5495 5492 5490 5487 5485 5483 5480 5477 5474 5472 5469 5465 5462 5459 5456 5453 5450 5448 5445 5443 5441 5440 5439 5438 5438
5520 5520 5519 5519 5517 5516 5515 5514 5512 5510 5509 5507 5505 5503 5501 5499 5497 5494 5492 5489 5487 5484 5482 5479 5477 5474 5472 5469 5466 5463 5460 5457 5454 5451 5448 5445 5442 5440 5438 5436 5434 5433 5433 5432
5514 5513 5513 5512 5511 5510 5509 5508 5506 5505 5503 5501 5499 5497 5495 5493 5491 5489 5486 5484 5481 5479 5476 5474 5471 5469 5466 5463 5460 5457 5454 5451 5448 5445 5442 5439 5437 5434 5432 5430 5429 5428 5427 5427
5508 5508 5507 5506 5506 5505 5504 5502 5501 5499 5498 5496 5494 5492 5490 5488 5485 5483 5480 5478 5476 5473 5471 5468 5466 5463 5461 5458 5455 5452 5448 5445 5442 5439 5437 5434 5432 5429 5427 5425 5424 5423 5422 5422
5503 5502 5501 5501 5500 5499 5498 5496 5495 5494 5492 5491 5489 5487 5485 5482 5480 5477 5475 5472 5470 5468 5466 5463 5461 5458 5455 5452 5449 5446 5443 5440 5437 5434 5431 5429 5426 5424 5422 5421 5419 5418 5418 5417
5497 5496 5496 5495 5494 5493 5492 5491 5490 5488 5487 5485 5484 5482 5480 5477 5475 5472 5470 5467 5465 5463 5461 5458 5455 5453 5450 5447 5444 5441 5437 5434 5432 5429 5426 5424 5422 5420 5418 5416 5415 5414 5414 5413
5491 5491 5490 5489 5488 5487 5486 5485 5484 5483 5481 5480 5478 5477 5474 5472 5470 5467 5465 5463 5460 5458 5456 5453 5451 5448 5445 5442 5439 5436 5432 5430 5427 5424 5421 5419 5417 5415 5414 5412 5411 5410 5410 5409
5486 5485 5484 5483 5482 5481 5480 5479 5478 5477 5475 5474 5473 5471 5469 5467 5465 5463 5460 5458 5456 5453 5451 5449 5446 5443 5440 5437 5434 5431 5428 5425 5422 5420 5417 5415 5413 5411 5410 5409 5408 5407 5406 5406
5480 5479 5478 5477 5476 5475 5474 5473 5472 5471 5470 5468 5467 5465 5463 5462 5460 5457 5455 5453 5451 5449 5446 5444 5441 5439 5436 5433 5429 5426 5423 5420 5418 5415 5413 5411 5409 5408 5407 5406 5405 5404 5403 5403
5474 5473 5473 5471 5471 5470 5469 5468 5467 5465 5464 5463 5461 5459 5458 5456 5454 5452 5450 5448 5446 5444 5442 5439 5437 5434 5431 5428 5425 5422 5419 5416 5414 5412 5410 5408 5406 5405 5404 5402 5402 5401 5400 5399
5468 5468 5467 5466 5465 5464 5463 5462 5461 5460 5458 5457 5455 5454 5452 5451 5449 5447 5445 5443 5441 5439 5437 5435 5432 5430 5427 5424 5421 5418 5416 5413 5411 5408 5406 5405 5403 5402 5401 5399 5399 5398 5397 5396
5462 5462 5461 5460 5459 5458 5457 5456 5454 5453 5452 5451 5450 5448 5446 5445 5443 5441 5440 5438 5436 5434 5432 5430 5428 5425 5423 5420 5418 5415 5412 5410 5408 5406 5404 5402 5401 5399 5398 5397 5396 5395 5394 5393
5457 5456 5455 5454 5452 5451 5450 5449 5448 5447 5446 5445 5443 5442 5441 5439 5437 5436 5434 5432 5430 5429 5427 5425 5423 5420 5418 5416 5414 5411 5409 5407 5405 5403 5401 5400 5398 5397 5395 5394 5393 5392 5391 5391
5451 5450 5449 5447 5446 5444 5443 5442 5441 5440 5439 5438 5437 5436 5434 5433 5431 5430 5428 5427 5425 5423 5421 5419 5417 5415 5413 5411 5409 5408 5406 5403 5402 5400 5398 5397 5395 5394 5392 5391 5390 5389 5389 5388